Location: Camoruquito
(9.9001°N, 67.3564°W)
Time: 14:05:31
(UTC+00:00)

Cosmos 1553 Rocket - Pass Details

Date: 14 April 2024
Orbit: 940 x 1008 km, 82.9° (Epoch: 27 May)

Event Time Altitude Azimuth Distance (km) Brightness Sun altitude
Rises 09:11:48 0° 341° (NNW) 3,649 6.9 -17.1°
Reaches altitude 10° 09:14:31 10° 333° (NNW) 2,693 6.2 -16.5°
Maximum altitude 09:20:02 36° 269° (W) 1,471 4.4 -15.2°
Drops below altitude 10° 09:25:31 10° 204° (SSW) 2,660 5.9 -13.8°
Sets 09:28:11 0° 196° (SSW) 3,599 6.7 -13.2°
